FW6490 Weather Reports


Display with metric or nautical units.
time (UTC)temp
F
wind
direction
speed
MPH
gust
MPH
rain 1hr
in
rain 24hr
in
rain mn
in
humidity
%
barometer
mb
20260903060350 62 329 2.0 5.0 0.00 0.00 0.00 90 1011.3
20260903055847 62 289 3.0 6.0 0.00 0.00 0.00 90 1011.3
20260903054847 62 331 2.0 6.0 0.00 0.00 0.00 90 1011.3
20260903053846 62 342 2.0 4.0 0.00 0.00 0.00 90 1011.4
20260903053345 62 342 2.0 4.0 0.00 0.00 0.00 90 1011.4
20260903052846 62 342 2.0 4.0 0.00 0.00 0.00 90 1011.3
20260903052340 62 342 1.0 4.0 0.00 0.00 0.00 89 1011.3
20260903051837 63 342 1.0 4.0 0.00 0.00 0.00 89 1011.3
20260903051334 63 342 1.0 4.0 0.00 0.00 0.00 89 1011.3
20260903050835 63 343 1.0 6.0 0.00 0.00 0.00 89 1011.3
20260903045833 63 319 2.0 5.0 0.00 0.00 0.00 89 1011.2
20260903044332 63 319 2.0 5.0 0.00 0.00 0.00 88 1011.2
20260903042832 64 319 2.0 4.0 0.00 0.00 0.00 88 1011.1
20260903042328 64 319 2.0 5.0 0.00 0.00 0.00 88 1011.1
20260903041828 64 321 3.0 7.0 0.00 0.00 0.00 88 1011.1
20260903041325 64 321 2.0 7.0 0.00 0.00 0.00 88 1011.1
20260903040825 64 310 2.0 5.0 0.00 0.00 0.00 88 1011.1
20260903040324 64 274 2.0 10.0 0.00 0.00 0.00 88 1011.1
20260903035821 64 270 3.0 10.0 0.00 0.00 0.00 88 1010.9
20260903035320 64 302 4.0 8.0 0.00 0.00 0.00 88 1010.9
20260903034820 64 265 3.0 8.0 0.00 0.00 0.00 88 1010.9
20260903034320 64 284 3.0 9.0 0.00 0.00 0.00 87 1010.7
20260903033818 64 305 3.0 9.0 0.00 0.00 0.00 87 1010.7
20260903033320 63 277 3.0 7.0 0.00 0.00 0.00 87 1010.7
20260903032816 64 278 3.0 7.0 0.00 0.00 0.00 86 1010.6
20260903032315 64 279 2.0 7.0 0.00 0.00 0.00 86 1010.6
20260903030807 64 271 3.0 6.0 0.00 0.00 0.00 85 1010.6
20260903030305 64 318 3.0 6.0 0.00 0.00 0.00 85 1010.6
20260903025805 64 275 2.0 6.0 0.00 0.00 0.00 84 1010.6
20260903025306 64 313 2.0 6.0 0.00 0.00 0.00 84 1010.6
20260903024804 65 313 3.0 8.0 0.00 0.00 0.00 84 1010.6
20260903024300 65 269 3.0 8.0 0.00 0.00 0.00 83 1010.6
20260903023757 65 275 3.0 7.0 0.00 0.00 0.00 83 1010.6
20260903023257 65 304 3.0 8.0 0.00 0.00 0.00 82 1010.6
20260903022756 65 318 3.0 8.0 0.00 0.00 0.00 82 1010.6
20260903021750 66 305 3.0 7.0 0.00 0.00 0.00 81 1010.6
20260903021247 66 294 4.0 11.0 0.00 0.00 0.00 80 1010.7
20260903020744 66 263 4.0 11.0 0.00 0.00 0.00 80 1010.7
20260903020245 66 266 4.0 10.0 0.00 0.00 0.00 79 1010.7
20260903015741 66 283 4.0 10.0 0.00 0.00 0.00 78 1010.7
20260903014737 67 305 3.0 10.0 0.00 0.00 0.00 76 1010.7
20260903014235 67 280 4.0 10.0 0.00 0.00 0.00 75 1010.7
20260903013735 68 289 4.0 8.0 0.00 0.00 0.00 75 1010.7
20260903012234 70 323 5.0 10.0 0.00 0.00 0.00 71 1010.7
20260903011734 70 331 4.0 10.0 0.00 0.00 0.00 69 1010.7
20260903011231 71 309 4.0 9.0 0.00 0.00 0.00 68 1010.8
20260903010735 71 301 4.0 9.0 0.00 0.00 0.00 69 1010.8
20260903010231 71 300 5.0 9.0 0.00 0.00 0.00 69 1010.8
20260903005730 72 309 5.0 10.0 0.00 0.00 0.00 69 1010.8
20260903005227 72 310 5.0 10.0 0.00 0.00 0.00 68 1010.8
20260903004725 72 266 4.0 9.0 0.00 0.00 0.00 68 1010.8
20260903004224 73 314 4.0 9.0 0.00 0.00 0.00 67 1010.9
20260903003726 73 311 4.0 9.0 0.00 0.00 0.00 67 1010.9
20260903002721 73 305 5.0 12.0 0.00 0.00 0.00 67 1010.9
20260903002219 73 346 5.0 13.0 0.00 0.00 0.00 67 1010.9
20260903001717 73 346 5.0 13.0 0.00 0.00 0.00 67 1011.0
20260903000718 72 313 4.0 9.0 0.00 0.00 0.00 68 1010.9
20260902235709 71 302 6.0 13.0 0.00 0.00 0.00 68 1011.0
20260902235207 72 297 6.0 13.0 0.00 0.00 0.00 65 1011.0
20260902234704 72 294 6.0 13.0 0.00 0.00 0.00 65 1011.0
20260902234206 72 288 6.0 12.0 0.00 0.00 0.00 66 1011.1
20260902233702 73 256 6.0 12.0 0.00 0.00 0.00 65 1011.1
20260902233202 73 288 6.0 14.0 0.00 0.00 0.00 63 1011.2
20260902232157 74 318 6.0 14.0 0.00 0.00 0.00 60 1011.3
20260902231655 75 306 5.0 12.0 0.00 0.00 0.00 59 1011.3
20260902231154 76 295 5.0 14.0 0.00 0.00 0.00 58 1011.4
20260902230654 76 331 5.0 14.0 0.00 0.00 0.00 58 1011.4
20260902225654 77 331 4.0 11.0 0.00 0.00 0.00 57 1011.6
20260902224147 75 315 5.0 10.0 0.00 0.00 0.00 59 1011.7
20260902223645 74 306 6.0 13.0 0.00 0.00 0.00 60 1011.7
20260902222640 75 282 6.0 15.0 0.00 0.00 0.00 57 1011.8
20260902222137 76 309 5.0 13.0 0.00 0.00 0.00 56 1011.8
20260902221132 76 325 5.0 11.0 0.00 0.00 0.00 57 1011.9
20260902220631 76 311 6.0 12.0 0.00 0.00 0.00 57 1011.9
20260902220128 75 313 6.0 14.0 0.00 0.00 0.00 58 1011.9
20260902215625 74 298 5.0 14.0 0.00 0.00 0.00 59 1011.9
20260902214621 75 312 5.0 13.0 0.00 0.00 0.00 59 1011.9
20260902214125 76 326 4.0 11.0 0.00 0.00 0.00 57 1011.8
20260902213616 76 296 5.0 11.0 0.00 0.00 0.00 57 1011.8
20260902212612 77 103 4.0 11.0 0.00 0.00 0.00 55 1011.9
20260902212109 77 338 5.0 13.0 0.00 0.00 0.00 56 1011.9
20260902211608 77 339 5.0 13.0 0.00 0.00 0.00 55 1011.9
20260902211109 78 333 5.0 11.0 0.00 0.00 0.00 55 1011.9
20260902210609 78 333 4.0 10.0 0.00 0.00 0.00 55 1011.9
20260902210106 78 333 4.0 10.0 0.00 0.00 0.00 55 1011.9
20260902205606 78 321 4.0 12.0 0.00 0.00 0.00 56 1011.9
20260902205101 78 5 5.0 12.0 0.00 0.00 0.00 55 1011.9
20260902204607 77 313 4.0 10.0 0.00 0.00 0.00 56 1011.9
20260902204103 77 345 4.0 10.0 0.00 0.00 0.00 56 1011.9
20260902203559 77 305 5.0 10.0 0.00 0.00 0.00 55 1011.9
20260902203058 77 313 5.0 10.0 0.00 0.00 0.00 56 1011.9
20260902202556 77 346 5.0 11.0 0.00 0.00 0.00 55 1012.0
20260902202055 76 335 5.0 11.0 0.00 0.00 0.00 56 1012.0
20260902201556 77 348 5.0 11.0 0.00 0.00 0.00 55 1012.0
20260902201050 77 320 5.0 11.0 0.00 0.00 0.00 55 1012.1
20260902200549 77 283 4.0 10.0 0.00 0.00 0.00 54 1012.1
20260902195550 76 322 5.0 9.0 0.00 0.00 0.00 53 1012.0
20260902194547 76 325 5.0 11.0 0.00 0.00 0.00 53 1012.0
20260902194049 77 311 5.0 11.0 0.00 0.00 0.00 52 1012.0
20260902193544 76 345 5.0 10.0 0.00 0.00 0.00 53 1012.0
20260902193042 76 336 5.0 9.0 0.00 0.00 0.00 53 1012.0
20260902192540 77 315 5.0 10.0 0.00 0.00 0.00 51 1012.2
20260902192039 77 323 5.0 10.0 0.00 0.00 0.00 51 1012.2
20260902191539 76 310 5.0 9.0 0.00 0.00 0.00 52 1012.2
20260902191038 77 309 4.0 8.0 0.00 0.00 0.00 49 1012.4
20260902190035 77 346 4.0 8.0 0.00 0.00 0.00 49 1012.4
20260902185529 77 342 4.0 9.0 0.00 0.00 0.00 49 1012.4
20260902185030 78 325 4.0 10.0 0.00 0.00 0.00 49 1012.4
20260902184533 77 351 4.0 10.0 0.00 0.00 0.00 49 1012.4
20260902183527 77 325 4.0 11.0 0.00 0.00 0.00 48 1012.5
20260902183029 76 0 4.0 11.0 0.00 0.00 0.00 49 1012.5
20260902182525 76 344 4.0 10.0 0.00 0.00 0.00 49 1012.4
20260902182025 76 318 4.0 9.0 0.00 0.00 0.00 49 1012.4
20260902181522 75 320 4.0 9.0 0.00 0.00 0.00 49 1012.4
20260902181023 76 310 3.0 9.0 0.00 0.00 0.00 49 1012.5
20260902180522 75 333 3.0 7.0 0.00 0.00 0.00 51 1012.5
20260902180020 75 340 3.0 6.0 0.00 0.00 0.00 51 1012.5
20260902175518 74 309 3.0 6.0 0.00 0.00 0.00 51 1012.5
20260902175021 74 329 3.0 9.0 0.00 0.00 0.00 52 1012.4
20260902174519 73 317 3.0 9.0 0.00 0.00 0.00 52 1012.4
20260902174017 74 318 3.0 6.0 0.00 0.00 0.00 52 1012.4
20260902173009 73 325 2.0 6.0 0.00 0.00 0.00 53 1012.3
20260902172006 72 325 4.0 7.0 0.00 0.00 0.00 53 1012.3
20260902171504 72 327 3.0 7.0 0.00 0.00 0.00 55 1012.3
20260902171000 71 268 3.0 7.0 0.00 0.00 0.00 55 1012.3
20260902170457 71 329 4.0 9.0 0.00 0.00 0.00 57 1012.3
20260902165957 71 286 3.0 9.0 0.00 0.00 0.00 57 1012.3
20260902164456 70 334 3.0 9.0 0.00 0.00 0.00 62 1012.3
20260902163953 70 350 2.0 9.0 0.00 0.00 0.00 63 1012.2
20260902162951 69 347 2.0 4.0 0.00 0.00 0.00 67 1012.2
20260902162447 68 312 1.0 4.0 0.00 0.00 0.00 67 1012.2
20260902161942 67 309 1.0 4.0 0.00 0.00 0.00 69 1012.2
20260902160937 65 309 0.0 0.0 0.00 0.00 0.00 77 1012.2
20260902160430 64 309 0.0 0.0 0.00 0.00 0.00 80 1012.2
20260902155924 63 309 0.0 0.0 0.00 0.00 0.00 81 1012.2
20260902155423 63 309 0.0 0.0 0.00 0.00 0.00 81 1012.2
20260902154918 62 309 0.0 0.0 0.00 0.00 0.00 82 1012.2
20260902153915 62 309 0.0 0.0 0.00 0.00 0.00 83 1012.1
20260902152410 60 309 0.0 0.0 0.00 0.00 0.00 86 1012.1
20260902151906 60 309 0.0 0.0 0.00 0.00 0.00 87 1012.1
20260902151400 60 309 0.0 0.0 0.00 0.00 0.00 88 1012.1
20260902150858 59 309 0.0 2.0 0.00 0.00 0.00 89 1012.2
20260902150356 59 309 0.0 2.0 0.00 0.00 0.00 90 1012.2
20260902145857 58 309 0.0 2.0 0.00 0.00 0.00 91 1012.2
20260902145355 57 309 0.0 1.0 0.00 0.00 0.00 92 1012.2
20260902144358 56 309 0.0 2.0 0.00 0.00 0.00 93 1011.7
20260902143851 56 309 0.0 1.0 0.00 0.00 0.00 93 1011.7
20260902143348 55 309 0.0 0.0 0.00 0.00 0.00 94 1011.7
20260902142847 54 309 0.0 0.0 0.00 0.00 0.00 95 1011.6
20260902142348 53 309 0.0 0.0 0.00 0.00 0.00 95 1011.6
20260902140846 52 309 0.0 0.0 0.00 0.00 0.00 94 1011.5
20260902140339 52 309 0.0 0.0 0.00 0.00 0.00 94 1011.5
20260902135837 52 309 0.0 0.0 0.00 0.00 0.00 93 1011.6
20260902135336 53 309 0.0 2.0 0.00 0.00 0.00 94 1011.6
20260902134836 53 309 0.0 2.0 0.00 0.00 0.00 94 1011.6
20260902133836 53 309 1.0 2.0 0.00 0.00 0.00 93 1011.7
20260902133337 53 309 1.0 3.0 0.00 0.00 0.00 94 1011.7
20260902132834 54 309 1.0 3.0 0.00 0.00 0.00 94 1011.7
20260902132333 54 309 1.0 3.0 0.00 0.00 0.00 94 1011.7
20260902131832 54 309 1.0 3.0 0.00 0.00 0.00 94 1011.7
20260902131332 54 309 1.0 3.0 0.00 0.00 0.00 94 1011.6
20260902130828 53 309 1.0 4.0 0.00 0.00 0.00 94 1011.6
20260902125829 53 309 1.0 4.0 0.00 0.00 0.00 94 1011.7
20260902125327 52 309 1.0 3.0 0.00 0.00 0.00 93 1011.7
20260902124827 52 309 2.0 3.0 0.00 0.00 0.00 93 1011.7
20260902124325 52 309 2.0 4.0 0.00 0.00 0.00 93 1011.8
20260902123321 52 309 0.0 2.0 0.00 0.00 0.00 92 1011.8
20260902122819 52 309 0.0 2.0 0.00 0.00 0.00 93 1011.8
20260902121813 52 309 0.0 2.0 0.00 0.00 0.00 93 1011.8
20260902121310 52 309 0.0 0.0 0.00 0.00 0.00 92 1011.7
20260902120807 52 309 0.0 0.0 0.00 0.00 0.00 93 1011.7
20260902120307 52 309 0.0 0.0 0.00 0.00 0.00 92 1011.7
20260902115807 52 309 0.0 0.0 0.00 0.00 0.00 93 1011.9
20260902115308 52 309 0.0 0.0 0.00 0.00 0.00 92 1011.9
20260902114804 52 309 0.0 0.0 0.00 0.00 0.00 92 1011.9
20260902113804 52 309 0.0 0.0 0.00 0.00 0.00 92 1011.7
20260902113300 53 309 0.0 0.0 0.00 0.00 0.00 92 1011.7
20260902112756 53 309 0.0 0.0 0.00 0.00 0.00 93 1011.6
20260902112248 53 309 0.0 0.0 0.00 0.00 0.00 92 1011.6
20260902111746 53 309 0.0 0.0 0.00 0.00 0.00 92 1011.6
20260902111246 53 309 0.0 0.0 0.00 0.00 0.00 93 1011.5
20260902110745 53 309 0.0 0.0 0.00 0.00 0.00 93 1011.5
20260902110244 53 309 0.0 0.0 0.00 0.00 0.00 93 1011.5
20260902105738 53 309 0.0 0.0 0.00 0.00 0.00 92 1011.5
20260902105237 53 309 0.0 0.0 0.00 0.00 0.00 93 1011.5
20260902104733 53 309 0.0 0.0 0.00 0.00 0.00 93 1011.5
20260902104228 53 309 0.0 0.0 0.00 0.00 0.00 93 1011.4
20260902103727 53 309 0.0 0.0 0.00 0.00 0.00 93 1011.4
20260902103225 53 309 0.0 0.0 0.00 0.00 0.00 93 1011.4
20260902102728 53 309 0.0 0.0 0.00 0.00 0.00 93 1011.5
20260902102220 54 309 0.0 0.0 0.00 0.00 0.00 93 1011.5
20260902101720 54 309 0.0 0.0 0.00 0.00 0.00 93 1011.5
20260902101220 53 309 0.0 0.0 0.00 0.00 0.00 93 1011.5
20260902100718 53 309 0.0 0.0 0.00 0.00 0.00 93 1011.5
20260902100210 53 309 0.0 0.0 0.00 0.00 0.00 93 1011.5
20260902095708 53 309 0.0 0.0 0.00 0.00 0.00 93 1011.7
20260902095205 53 309 0.0 0.0 0.00 0.00 0.00 93 1011.7
20260902094708 53 309 0.0 0.0 0.00 0.00 0.00 93 1011.7
20260902094201 53 309 0.0 0.0 0.00 0.00 0.00 93 1011.8
20260902093659 53 309 0.0 0.0 0.00 0.00 0.00 93 1011.8
20260902093157 53 309 0.0 0.0 0.00 0.00 0.00 93 1011.8
20260902092656 53 309 0.0 0.0 0.00 0.00 0.00 93 1011.8
20260902091655 53 309 0.0 0.0 0.00 0.00 0.00 93 1011.8
20260902091150 53 309 0.0 0.0 0.00 0.00 0.00 92 1011.9
20260902090650 53 309 0.0 0.0 0.00 0.00 0.00 92 1011.9
20260902090152 53 309 0.0 0.0 0.00 0.00 0.00 92 1011.9
20260902085647 53 309 0.0 0.0 0.00 0.00 0.00 92 1012.0
20260902084637 53 309 0.0 0.0 0.00 0.00 0.00 92 1012.0
20260902084134 53 309 0.0 0.0 0.00 0.00 0.00 92 1012.0
20260902083629 53 309 0.0 0.0 0.00 0.00 0.00 92 1012.0
20260902083130 53 309 0.0 0.0 0.00 0.00 0.00 92 1012.0
20260902082626 54 309 0.0 0.0 0.00 0.00 0.00 92 1012.0
20260902082124 54 309 0.0 0.0 0.00 0.00 0.00 92 1012.0
20260902081621 54 309 0.0 0.0 0.00 0.00 0.00 92 1012.0
20260902081123 54 309 0.0 0.0 0.00 0.00 0.00 92 1011.6
20260902080618 54 309 0.0 0.0 0.00 0.00 0.00 92 1011.6
20260902080112 54 309 0.0 0.0 0.00 0.00 0.00 92 1011.6
20260902075112 54 309 0.0 0.0 0.00 0.00 0.00 92 1011.6
20260902074606 54 309 0.0 0.0 0.00 0.00 0.00 91 1011.6
20260902074106 55 309 0.0 0.0 0.00 0.00 0.00 91 1011.6
20260902073609 55 309 0.0 0.0 0.00 0.00 0.00 91 1011.6
20260902073104 55 309 0.0 0.0 0.00 0.00 0.00 91 1011.6
20260902072606 55 309 0.0 0.0 0.00 0.00 0.00 91 1011.6
20260902072059 55 309 0.0 0.0 0.00 0.00 0.00 91 1011.6
20260902071557 55 309 0.0 0.0 0.00 0.00 0.00 91 1011.6
20260902071056 56 309 0.0 0.0 0.00 0.00 0.00 91 1011.6
20260902070059 56 309 0.0 0.0 0.00 0.00 0.00 91 1011.6
20260902065556 56 309 0.0 0.0 0.00 0.00 0.00 90 1011.6
20260902065050 56 309 0.0 0.0 0.00 0.00 0.00 90 1011.6
20260902064544 56 309 0.0 0.0 0.00 0.00 0.00 90 1011.6
20260902063543 56 309 0.0 0.0 0.00 0.00 0.00 90 1011.6
20260902062534 56 309 0.0 1.0 0.00 0.00 0.00 90 1011.6
20260902062035 57 309 0.0 0.0 0.00 0.00 0.00 89 1011.6
20260902061029 57 309 0.0 0.0 0.00 0.00 0.00 89 1011.8